Погода в Обухово

Россия / Кировская область     57°34′17″N   48°36′37″E
темп.,
°C
ветер,
м/с
пор.,
м/с
влажн.,
%
обл.,
%
осадки,
мм/ч
давл.,
гПа
погр.,
м
21 января, чт
чт2100:00−15зюз479695 0.1 1013178
03:00−17з359898 0.2 101486
06:00−17з3598100 0.0 101486
09:00−17з3498100 0.1 101476
12:00−12з4794100 0.1 1014402
15:00−11з4795100 0.4 1014409
18:00−12з359694 0.2 1014113
21:00−13з369696 0.4 1015152
22 января, пт
пт2200:00−15зсз239786 0.1 101540
03:00−18с229993 0.2 101721
06:00−23с229999 0.0 101820
09:00−25ссв229880 0.1 101920
12:00−22св129592 0.0 1021109
15:00−22всв229589 0.0 102220
18:00−24вюв349499 0.0 102469
21:00−23юв499499 0.0 1025202
23 января, сб
сб2300:00−21юв51093100 0.0 1025266
03:00−19юв61092100 0.0 1023294
06:00−18юв71396100 0.2 1022355
09:00−16ююв61295100 1.3 1020435
12:00−13ююв61094100 0.9 1018409
15:00−11юв4894100 1.3 1017312
18:00−10юв4695100 0.3 1016168
21:00−8юв3596100 0.8 1015117
24 января, вс
вс2400:00−2ююв2499100 0.6 1015105
03:00+1юз51198100 1.6 1015340
06:00+1зюз5998100 0.4 1015359
09:00+1зюз4798100 0.4 1016266
12:00+1зюз36100100 0.1 1017249
15:00+1юз3699100 0.3 1018147
18:00+1юз4898100 0.1 1019267
21:000ююз3795100 0.2 1020177
25 января, пн
пн2500:00+1ююз3799100 0.0 1020201
03:00+1ююз3897100 0.1 1020274
06:00+1ююз4896100 0.3 1020266
09:00+1ююз5996100 0.4 1021338
12:00+1ююз51195100 0.6 1022409
15:00−1ююз51093100 0.6 1022426
18:00−2ю51092100 0.0 1023617
21:00−3ю51093100 0.1 1022439